[[{"header":{"parameterUnit":"m.s-1","parameterCategory":1,"la1":30.2991,"la2":30.254,"lo1":-89.0895,"lo2":-89.0444,"dy":0.0017,"dx":0.0017,"nx":28,"ny":28,"refTime":"2023-09-11T21:00:00:Z","depth":0,"parameterNumber":2,"parameterNumberName":"U-component_of_WINDS"},"data":[0,0,0,0,0,0,0,0,0,0,0,0,0,0,0,0,0,0,0,0,0,0,0,0,0,0,0,0,0,0,0,0,0,0,0,0,0,0,0,0,0,0,0,0,0,0,0,0,0,0,0,0,0,0,0,0,0,0,-0.2309,-0.2309,0,-0.2311,-0.2312,-0.2312,-0.2302,-0.2302,-0.2302,-0.2301,-0.2305,-0.2305,-0.2305,0,0,0,0,0,0,0,0,0,0,0,0,0,-0.2299,-0.2299,-0.2309,-0.2309,-0.2309,-0.2311,-0.2312,-0.2312,-0.2302,-0.2302,-0.2302,-0.2301,-0.2305,-0.2305,-0.2305,0,0,0,0,0,0,0,0,0,0,0,0,0,-0.2303,-0.2299,-0.2309,-0.2305,-0.2305,-0.2311,-0.2312,-0.2312,-0.2302,-0.2302,-0.2302,-0.2301,-0.2304,-0.2305,-0.2306,-0.2317,0,0,-0.2307,-0.2307,0,0,0,0,0,0,0,0,-0.2302,-0.2303,-0.2306,-0.2305,-0.2305,-0.2306,-0.2309,-0.2313,-0.2302,-0.2303,-0.2301,-0.2301,-0.2306,-0.2306,-0.2307,-0.2317,-0.2317,-0.2307,-0.2307,-0.2308,-0.2308,0,0,0,0,0,0,0,-0.2302,-0.2303,-0.231,-0.2306,-0.2305,-0.2304,-0.2304,-0.231,-0.2307,-0.2303,-0.2302,-0.2303,-0.2305,-0.2307,-0.2307,-0.2317,-0.2307,-0.2308,-0.2308,-0.2308,-0.2339,-0.2339,0,0,0,0,0,0,-0.2302,-0.2303,-0.231,-0.231,-0.2302,-0.2304,-0.2304,-0.2306,-0.2307,-0.2306,-0.2303,-0.2302,-0.2306,-0.2307,-0.2307,-0.2322,-0.2308,-0.2308,-0.2308,-0.2338,-0.2339,-0.2339,0,0,0,0,0,0,-0.2302,-0.2303,-0.231,-0.2306,-0.2307,-0.2305,-0.2307,-0.2306,-0.2308,-0.2307,-0.2306,-0.2305,-0.2306,-0.2307,-0.2315,-0.2322,-0.2308,-0.2309,-0.2338,-0.2338,-0.2339,-0.2351,0,0,0,0,0,0,-0.2302,-0.2303,-0.2307,-0.2306,-0.2307,-0.2317,-0.2307,-0.2307,-0.2309,-0.2308,-0.2308,-0.2308,-0.2306,-0.2314,-0.2316,-0.2323,-0.2309,-0.2337,-0.2338,-0.2339,-0.235,-0.2352,-0.2354,0,0,0,0,0,-0.2301,-0.231,-0.2307,-0.2308,-0.2312,-0.2317,-0.2318,-0.2314,-0.2309,-0.2314,-0.2313,-0.2308,-0.2321,-0.2315,-0.2317,-0.2324,-0.2336,-0.2338,-0.2339,-0.2349,-0.2352,-0.2354,0,0,0,0,0,0,-0.2311,-0.231,-0.2306,-0.2315,-0.2316,-0.2316,-0.2321,-0.2317,-0.232,-0.2319,-0.2315,-0.2315,-0.2325,-0.2325,-0.2319,-0.2336,-0.2328,-0.2329,-0.2335,-0.2338,-0.234,-0.234,-0.231,0,0,0,0,0,-0.2314,-0.2318,-0.2317,-0.2325,-0.2326,-0.2323,-0.2325,-0.2323,-0.2324,-0.2325,-0.2325,-0.2327,-0.2331,-0.2335,-0.2339,-0.235,-0.2351,-0.2356,-0.2358,-0.2359,-0.2361,-0.2368,-0.2371,-0.2343,-0.2343,-0.2343,0,0,-0.2321,-0.232,-0.2323,-0.2327,-0.2327,-0.2333,-0.2324,-0.2329,-0.2333,-0.2326,-0.2334,-0.2334,-0.2336,-0.2346,-0.2351,-0.2347,-0.2369,-0.2361,-0.2362,-0.2363,-0.237,-0.2372,-0.2375,-0.2344,-0.2344,-0.2343,0,0,-0.2335,-0.2335,-0.2342,-0.2343,-0.2345,-0.2343,-0.2345,-0.2345,-0.2345,-0.2353,-0.2348,-0.2353,-0.2361,-0.2363,-0.2365,-0.2382,-0.2378,-0.2383,-0.2394,-0.2401,-0.2403,-0.2405,-0.2413,-0.2415,-0.2385,-0.2385,-0.2385,0,-0.2343,-0.235,-0.2346,-0.2352,-0.2355,-0.2348,-0.2356,-0.2357,-0.236,-0.2362,-0.2358,-0.2368,-0.2369,-0.238,-0.2385,-0.2386,-0.2389,-0.2383,-0.2403,-0.2405,-0.2407,-0.2414,-0.2417,-0.2386,-0.2385,-0.2385,-0.2385,0,-0.2361,-0.2366,-0.2371,-0.2374,-0.2377,-0.2384,-0.2382,-0.2385,-0.2383,-0.2382,-0.2391,-0.2392,-0.2397,-0.24,-0.2397,-0.2411,-0.2409,-0.2404,-0.2396,-0.241,-0.2417,-0.2419,-0.2387,-0.2386,-0.2386,-0.2386,0,0,-0.2381,-0.2382,-0.2385,-0.2387,-0.2388,-0.2392,-0.24,-0.2404,-0.2408,-0.241,-0.2417,-0.2425,-0.242,-0.2423,-0.242,-0.2427,-0.2442,-0.2421,-0.2421,-0.2426,-0.2459,-0.2464,-0.2467,-0.2439,-0.244,-0.244,-0.246,0,-0.2396,-0.2408,-0.2405,-0.2418,-0.2423,-0.2418,-0.2424,-0.2426,-0.2426,-0.2432,-0.2432,-0.2437,-0.2431,-0.2432,-0.2438,-0.2439,-0.2449,-0.2437,-0.2447,-0.2447,-0.2447,-0.247,-0.2474,-0.2492,-0.2462,-0.2462,-0.2463,0,-0.2415,-0.2419,-0.2432,-0.2434,-0.2436,-0.2442,-0.2447,-0.2451,-0.2454,-0.2454,-0.2457,-0.2454,-0.2463,-0.2454,-0.2466,-0.2459,-0.2462,-0.2463,-0.2464,-0.2465,-0.2456,-0.2473,-0.2498,-0.2501,-0.2466,-0.2466,-0.2466,0,-0.243,-0.2438,-0.2447,-0.2449,-0.2451,-0.2456,-0.2457,-0.246,-0.2463,-0.2467,-0.247,-0.2475,-0.2478,-0.2483,-0.2482,-0.2476,-0.2495,-0.2486,-0.2496,-0.2496,-0.2501,-0.2501,-0.2528,-0.2502,-0.2502,-0.2502,-0.2501,0,-0.2448,-0.2457,-0.2454,-0.246,-0.247,-0.2467,-0.2477,-0.2477,-0.248,-0.2486,-0.2482,-0.2488,-0.2486,-0.2492,-0.2492,-0.2503,-0.2504,-0.2505,-0.2504,-0.2505,-0.2506,-0.2508,-0.2507,-0.2502,-0.2502,-0.2502,-0.2502,0,-0.2467,-0.2465,-0.2475,-0.2477,-0.2477,-0.2485,-0.2486,-0.2492,-0.2492,-0.25,-0.2502,-0.2502,-0.251,-0.2509,-0.2518,-0.2517,-0.2531,-0.2529,-0.253,-0.253,-0.254,-0.254,-0.2571,-0.2575,-0.2546,-0.2546,-0.2546,0,-0.2478,-0.2485,-0.2487,-0.2491,-0.2493,-0.2499,-0.2503,-0.2501,-0.2505,-0.251,-0.2515,-0.2522,-0.2528,-0.2541,-0.2542,-0.2549,-0.2547,-0.2558,-0.2548,-0.255,-0.2549,-0.2549,-0.255,-0.256,-0.256,-0.2561,-0.2561,0,-0.25,-0.2499,-0.2504,-0.251,-0.2515,-0.2519,-0.2523,-0.2526,-0.2525,-0.253,-0.2538,-0.2542,-0.2551,-0.2559,-0.2565,-0.2568,-0.2565,-0.2564,-0.2567,-0.2568,-0.2569,-0.257,-0.2536,-0.2563,-0.2563,-0.2563,-0.2563,-0.2562,-0.2516,-0.2522,-0.2525,-0.2532,-0.2534,-0.2538,-0.2544,-0.2545,-0.2552,-0.2559,-0.2557,-0.2566,-0.2571,-0.2579,-0.2582,-0.259,-0.2586,-0.259,-0.2591,-0.2592,-0.2594,-0.2567,-0.2591,-0.2591,-0.2591,-0.2591,-0.2591,0,-0.2538,-0.254,-0.2546,-0.2552,-0.2557,-0.2554,-0.2558,-0.2563,-0.2571,-0.2575,-0.2581,-0.2591,-0.2598,-0.2601,-0.2608,-0.2614,-0.2613,-0.2617,-0.2617,-0.2618,-0.2596,-0.2594,-0.2617,-0.2617,-0.2617,-0.2617,-0.2617,-0.2617,-0.255,-0.2561,-0.2561,-0.2573,-0.2575,-0.2584,-0.2587,-0.2591,-0.2594,-0.2605,-0.2612,-0.2613,-0.2617,-0.2625,-0.2633,-0.2633,-0.2637,-0.2641,-0.2641,-0.2621,-0.2619,-0.2616,-0.2614,-0.2641,-0.2642,-0.2662,-0.2662,-0.2662]},{"header":{"parameterUnit":"m.s-1","parameterCategory":1,"la1":30.2991,"la2":30.254,"lo1":-89.0895,"lo2":-89.0444,"dy":0.0017,"dx":0.0017,"nx":28,"ny":28,"refTime":"2023-09-11T21:00:00:Z","depth":0,"parameterNumber":3,"parameterNumberName":"V-component_of_WINDS"},"data":[0,0,0,0,0,0,0,0,0,0,0,0,0,0,0,0,0,0,0,0,0,0,0,0,0,0,0,0,0,0,0,0,0,0,0,0,0,0,0,0,0,0,0,0,0,0,0,0,0,0,0,0,0,0,0,0,0,0,3.4395,3.4395,0,3.4351,3.4351,3.435,3.4286,3.4285,3.4284,3.4283,3.4239,3.4239,3.4239,0,0,0,0,0,0,0,0,0,0,0,0,0,3.4424,3.4424,3.4395,3.4395,3.4394,3.4351,3.4351,3.435,3.4286,3.4285,3.4284,3.4282,3.4239,3.4239,3.4239,0,0,0,0,0,0,0,0,0,0,0,0,0,3.4399,3.4424,3.4395,3.4357,3.4353,3.4352,3.4351,3.435,3.4287,3.4285,3.4283,3.4282,3.4239,3.4239,3.4239,3.4271,0,0,3.4238,3.4238,0,0,0,0,0,0,0,0,3.4401,3.4398,3.4363,3.436,3.4355,3.4323,3.4345,3.4324,3.4287,3.4312,3.4283,3.4281,3.4268,3.4266,3.4261,3.4269,3.4267,3.4238,3.4238,3.4238,3.4238,0,0,0,0,0,0,0,3.4403,3.44,3.4378,3.4363,3.4358,3.4342,3.4337,3.4341,3.43,3.431,3.4305,3.4301,3.4266,3.4261,3.426,3.4267,3.4238,3.4238,3.4238,3.4238,3.4297,3.4299,0,0,0,0,0,0,3.441,3.4402,3.4379,3.4377,3.4374,3.4343,3.4337,3.4335,3.43,3.4293,3.4302,3.4298,3.4263,3.426,3.4258,3.4291,3.4238,3.4238,3.4238,3.4296,3.4298,3.43,0,0,0,0,0,0,3.4411,3.4409,3.4381,3.4388,3.4383,3.4345,3.4342,3.4335,3.433,3.4294,3.4287,3.4305,3.4261,3.4258,3.4268,3.4289,3.4238,3.4238,3.4294,3.4296,3.4299,3.4361,0,0,0,0,0,0,3.4412,3.4409,3.4421,3.4389,3.4383,3.4392,3.4344,3.4335,3.433,3.4324,3.4295,3.4288,3.426,3.4268,3.4268,3.4288,3.4237,3.4292,3.4295,3.4298,3.4357,3.4365,3.4372,0,0,0,0,0,3.4413,3.4441,3.4422,3.442,3.4397,3.4393,3.439,3.4356,3.4332,3.4343,3.432,3.4289,3.4288,3.427,3.4269,3.4289,3.429,3.4294,3.4298,3.4353,3.4363,3.4372,0,0,0,0,0,0,3.4477,3.4436,3.4414,3.4432,3.4417,3.4382,3.4396,3.4368,3.4359,3.4354,3.4313,3.4307,3.4321,3.4307,3.4288,3.4318,3.4284,3.4288,3.4327,3.4336,3.4344,3.4346,3.4237,0,0,0,0,0,3.4494,3.4494,3.4458,3.4477,3.447,3.4435,3.4432,3.4407,3.4389,3.4382,3.436,3.4344,3.4339,3.4337,3.4332,3.4355,3.4347,3.4368,3.4376,3.4383,3.4386,3.4395,3.4404,3.4312,3.4312,3.4312,0,0,3.4527,3.4504,3.4507,3.4489,3.4474,3.4475,3.443,3.4433,3.4433,3.4383,3.439,3.4373,3.4353,3.4369,3.4375,3.4357,3.441,3.4388,3.4393,3.4393,3.44,3.4409,3.4416,3.4315,3.4314,3.4314,0,0,3.4588,3.4572,3.4585,3.4571,3.4548,3.4524,3.4528,3.4497,3.4484,3.449,3.4452,3.4452,3.4446,3.4432,3.4425,3.4481,3.4451,3.448,3.452,3.453,3.4537,3.4543,3.4561,3.4568,3.4484,3.4484,3.4484,0,3.4632,3.4631,3.4595,3.46,3.4593,3.4548,3.4561,3.4549,3.4526,3.4522,3.4503,3.4493,3.4476,3.4487,3.4501,3.4497,3.4499,3.4482,3.4539,3.4545,3.455,3.4566,3.4574,3.4487,3.4487,3.4487,3.4486,0,3.4686,3.4686,3.47,3.4678,3.4673,3.4682,3.4647,3.4646,3.4622,3.46,3.4607,3.4585,3.4573,3.4575,3.4552,3.4583,3.4572,3.4547,3.4511,3.4563,3.4577,3.4584,3.4492,3.4491,3.449,3.4489,0,0,3.4784,3.4742,3.4747,3.4736,3.4708,3.4708,3.4715,3.4703,3.4702,3.4689,3.4692,3.4688,3.4664,3.4655,3.4631,3.464,3.4682,3.4612,3.4611,3.4624,3.4713,3.473,3.4738,3.4664,3.4665,3.4666,3.4713,0,3.4837,3.4846,3.4814,3.4831,3.483,3.4788,3.4793,3.4777,3.4757,3.4753,3.4732,3.4728,3.4698,3.4692,3.4699,3.4676,3.4699,3.4672,3.4665,3.4666,3.4669,3.4746,3.4765,3.4811,3.4719,3.472,3.4721,0,3.49,3.4889,3.4906,3.4876,3.4874,3.488,3.4866,3.4863,3.4844,3.4828,3.4819,3.479,3.4794,3.4762,3.4767,3.4749,3.4745,3.4733,3.4734,3.473,3.4695,3.4742,3.4825,3.4831,3.473,3.4729,3.4729,0,3.4967,3.4957,3.4964,3.4957,3.4923,3.4928,3.4914,3.4893,3.4887,3.4875,3.4871,3.486,3.4853,3.4845,3.4814,3.4794,3.4822,3.4788,3.4808,3.4809,3.4814,3.4814,3.4895,3.4816,3.4815,3.4815,3.4815,0,3.5029,3.504,3.4994,3.4999,3.501,3.4973,3.4986,3.4968,3.4949,3.4949,3.4913,3.4914,3.4874,3.487,3.4846,3.4852,3.485,3.4837,3.483,3.4839,3.484,3.4834,3.4829,3.4817,3.4817,3.4816,3.4816,0,3.5104,3.5074,3.508,3.5047,3.5039,3.5049,3.5021,3.5024,3.5002,3.5003,3.5001,3.4966,3.496,3.4928,3.4915,3.4899,3.4913,3.4901,3.4919,3.4914,3.4935,3.4933,3.5014,3.5021,3.494,3.494,3.4941,0,3.5144,3.5152,3.512,3.5117,3.5105,3.5102,3.5096,3.506,3.5055,3.5033,3.5039,3.503,3.502,3.5012,3.4986,3.4975,3.4961,3.499,3.4959,3.4967,3.4958,3.4957,3.4957,3.4996,3.4997,3.4998,3.4998,0,3.5218,3.5202,3.5195,3.5182,3.5176,3.5164,3.5151,3.5151,3.5111,3.5108,3.5101,3.5094,3.508,3.507,3.5055,3.5041,3.5012,3.5009,3.5012,3.502,3.503,3.5022,3.4935,3.5006,3.5006,3.5005,3.5005,3.5004,3.5275,3.5279,3.5257,3.525,3.5236,3.5224,3.5224,3.5202,3.5196,3.5181,3.5161,3.5156,3.5136,3.5112,3.51,3.5096,3.508,3.5086,3.5087,3.5088,3.5092,3.5032,3.5093,3.5093,3.5093,3.5092,3.5092,0,3.5344,3.5328,3.5322,3.5303,3.5298,3.5273,3.5256,3.5252,3.5249,3.5232,3.5223,3.5215,3.5206,3.5179,3.5167,3.5168,3.5155,3.5166,3.5164,3.5161,3.5108,3.5105,3.5177,3.5177,3.5177,3.5177,3.5177,3.5177,3.5379,3.5384,3.5367,3.5364,3.5348,3.5343,3.5335,3.5323,3.531,3.5302,3.5294,3.5276,3.5255,3.5241,3.5231,3.5223,3.522,3.5235,3.5223,3.5173,3.5165,3.5157,3.5154,3.5235,3.5235,3.5275,3.5276,3.5276]}]]